Time,TemperatureF,DewpointF,PressureIn,WindDirection,WindDirectionDegrees,WindSpeedMPH,WindSpeedGustMPH,Humidity,HourlyPrecipIn,Conditions,Clouds,dailyrainin,SoftwareType,DateUTC
2013-03-24 00:05:00,29.5,15.3,29.82,NW,315,9.0,22.0,55,0.00,,,-99.99,WeatherLink 5.5,2013-03-24 04:05:00,
2013-03-24 01:05:00,27.6,15.1,29.82,West,270,4.0,11.0,59,0.00,,,-99.99,WeatherLink 5.5,2013-03-24 05:05:00,
2013-03-24 02:05:00,27.6,15.1,29.82,West,270,4.0,11.0,59,0.00,,,-99.99,WeatherLink 5.5,2013-03-24 06:05:00,
2013-03-24 03:05:00,26.7,15.0,29.82,NW,315,4.0,11.0,61,0.00,,,-99.99,WeatherLink 5.5,2013-03-24 07:05:00,
2013-03-24 04:05:00,27.2,15.9,29.79,NW,315,5.0,14.0,62,0.00,,,-99.99,WeatherLink 5.5,2013-03-24 08:05:00,
2013-03-24 05:05:00,27.2,15.9,29.77,NW,315,6.0,13.0,62,0.00,,,-99.99,WeatherLink 5.5,2013-03-24 09:05:00,
2013-03-24 06:05:00,24.7,14.9,29.80,West,270,4.0,11.0,66,0.00,,,-99.99,WeatherLink 5.5,2013-03-24 10:05:00,
2013-03-24 07:05:00,24.2,15.5,29.82,West,270,3.0,7.0,69,0.00,,,-99.99,WeatherLink 5.5,2013-03-24 11:05:00,
2013-03-24 08:05:00,24.2,16.1,29.82,West,270,4.0,8.0,71,0.00,,,-99.99,WeatherLink 5.5,2013-03-24 12:05:00,
2013-03-24 09:05:00,25.8,18.0,29.84,West,270,4.0,7.0,72,0.00,,,-99.99,WeatherLink 5.5,2013-03-24 13:05:00,
2013-03-24 10:05:00,27.8,19.3,29.85,West,270,4.0,9.0,70,0.00,,,-99.99,WeatherLink 5.5,2013-03-24 14:05:00,
2013-03-24 11:05:00,32.7,20.3,29.85,West,270,4.0,8.0,60,0.00,,,-99.99,WeatherLink 5.5,2013-03-24 15:05:00,
2013-03-24 12:05:00,38.9,19.9,29.82,NW,315,5.0,16.0,46,0.00,,,-99.99,WeatherLink 5.5,2013-03-24 16:05:00,
2013-03-24 13:05:00,39.2,20.1,29.79,NNW,337,8.0,22.0,46,0.00,,,-99.99,WeatherLink 5.5,2013-03-24 17:05:00,
2013-03-24 14:05:00,40.8,21.1,29.76,North,0,7.0,19.0,45,0.00,,,-99.99,WeatherLink 5.5,2013-03-24 18:05:00,
2013-03-24 15:05:00,42.5,20.4,29.74,North,0,6.0,18.0,41,0.00,,,-99.99,WeatherLink 5.5,2013-03-24 19:05:00,
2013-03-24 16:05:00,41.5,20.6,29.71,North,0,5.0,18.0,43,0.00,,,-99.99,WeatherLink 5.5,2013-03-24 20:05:00,
2013-03-24 17:05:00,39.2,21.1,29.69,North,0,5.0,18.0,48,0.00,,,-99.99,WeatherLink 5.5,2013-03-24 21:05:00,
2013-03-24 18:05:00,38.5,21.5,29.68,North,0,4.0,14.0,50,0.00,,,-99.99,WeatherLink 5.5,2013-03-24 22:05:00,
2013-03-24 19:05:00,37.5,21.0,29.68,ENE,67,4.0,16.0,51,0.00,,,-99.99,WeatherLink 5.5,2013-03-24 23:05:00,
2013-03-24 20:05:00,36.2,21.1,29.69,ENE,67,2.0,13.0,54,0.00,,,-99.99,WeatherLink 5.5,2013-03-25 00:05:00,
2013-03-24 21:05:00,35.0,20.4,29.68,North,0,1.0,7.0,55,0.00,,,-99.99,WeatherLink 5.5,2013-03-25 01:05:00,
2013-03-24 22:05:00,35.3,20.7,29.71,North,0,0.0,7.0,55,0.00,,,-99.99,WeatherLink 5.5,2013-03-25 02:05:00,
2013-03-24 23:05:00,33.8,21.0,29.69,ENE,67,1.0,8.0,59,0.00,,,-99.99,WeatherLink 5.5,2013-03-25 03:05:00,